Regional Weather Roundup
Issued by NWS

Home | Current Version | Previous Version | Graphics & Text | Print | Product List | Glossary On
Versions: 1 2 3 4 5 6 7 8 9 10 11 12 13 14 15 16 17 18 19 20 21 22 23 24 25 26 27 28 29 30 31 32 33 34 35 36 37 38 39 40 41 42 43 44 45 46 47 48 49 50
000
ASUS43 KLOT 012310
RWRIL

ILLINOIS REGIONAL WEATHER ROUNDUP
NATIONAL WEATHER SERVICE CHICAGO/ROMEOVILLE IL
500 PM CST SUN MAR 01 2015

NOTE: "FAIR" INDICATES FEW OR NO CLOUDS BELOW 12,000 FEET WITH NO
SIGNIFICANT WEATHER AND/OR OBSTRUCTIONS TO VISIBILITY.

* THESE STATIONS ARE NOT UNDER NWS QUALITY CONTROL. THEY ALSO MAY NOT
  REPORT WEATHER SUCH AS PRECIPITATION OR FOG.

ILZ001-002-007-009-015-016-024-020000-
NORTHWEST ILLINOIS

CITY           SKY/WX    TMP DP  RH WIND       PRES   REMARKS
MOLINE         CLEAR     26  16  65 W13       30.32F WCI  15
STERLING*      CLEAR     25  18  74 W14       30.31F WCI  13
SAVANNA*       CLEAR     27  18  67 W10       30.30S WCI  18
$$

ILZ003-004-008-010-011-017-018-020000-
NORTH CENTRAL ILLINOIS

CITY           SKY/WX    TMP DP  RH WIND       PRES   REMARKS
ROCKFORD       PTCLDY    24  14  65 W16       30.28F WCI  11
FREEPORT*      PTCLDY    23  17  75 SW12      30.28S WCI  12
ROCHELLE*      CLEAR     20  16  84 SW10      30.29S WCI   9
DE KALB*       CLEAR     21  14  76 W15       30.27S WCI   7
PERU*          PTCLDY    24  16  70 W8        30.32S WCI  15
$$

ILZ005-006-012>014-019>023-020000-
NORTHEAST ILLINOIS

CITY           SKY/WX    TMP DP  RH WIND       PRES   REMARKS
CHICAGO-OHARE  MOCLDY    23  14  68 W14       30.26S WCI  11
CHICAGO-MIDWAY MOCLDY    26  16  65 W14       30.28S WCI  14
AURORA         CLEAR     22  14  71 SW12      30.29S WCI  10
LANSING*       PTCLDY    24  17  75 W14       30.29R WCI  11
JOLIET*        CLOUDY    22  15  75 W6        30.31S WCI  15
WAUKEGAN       CLEAR     24  15  68 SW12      30.23S WCI  13
DUPAGE AIRPORT PTCLDY    22  13  68 W12       30.27S WCI  10
KANKAKEE*      PTCLDY    22  18  83 W8        30.31F WCI  13
WHEELING       PTCLDY    24  14  65 W12       30.27S WCI  13
MORRIS*        MOCLDY    21  17  83 W10       30.30S WCI  10
ROMEOVILLE*    MOCLDY    22  15  77 W13       30.29S WCI   9
NORTHERLY ISL    N/A     27  16  63 SW10        N/A  WCI  17
$$

LMZ740>746-020000-
SOUTHERN LAKE MICHIGAN

STATION/POSITION SKY/WX   TEMP    WIND        PRES    VSBY  WAVE
                          AIR SEA DIR/SP/G                  HT/PER
                          (F)     (DEG/KT/KT) (MB)    (MI)  (FT/S)
WAUKEGAN HARBOR            25     240/ 13/ 19   N/A
HARRISON CRIB              26     270/ 16/ 21   N/A
BURNHAM HARBOR             26     250/  6/ 12   N/A
CALUMET HARBOR             25     210/  6/ 14 1023.8R
MICHIGAN CITY              22     220/  5/  5   N/A
$$

ILZ025>027-034>036-040-047-049-050-058-095>099-020000-
WEST-CENTRAL ILLINOIS

CITY           SKY/WX    TMP DP  RH WIND       PRES   REMARKS
QUINCY         MOCLDY    27  18  69 NW8       30.37R WCI  19
GALESBURG*     PTCLDY    23  18  78 W8        30.34S WCI  14
MACOMB*        MOCLDY    22  18  83 W9        30.37S WCI  12
JACKSONVILLE*  PTCLDY    30  21  70 W5        30.36R WCI  25
PITTSFIELD*    PTCLDY    29  21  70 W7        30.37S WCI  22
$$

ILZ028>032-037-038-041>044-048-051>054-059>061-020000-
CENTRAL ILLINOIS

CITY           SKY/WX    TMP DP  RH WIND       PRES   REMARKS
PONTIAC        PTCLDY    23  18  83 W9        30.32S WCI  13
BLOOMINGTON    CLOUDY    26  21  81 W9        30.32R WCI  17
DECATUR        MOCLDY    25  20  81 NW6       30.34R WCI  18
PEORIA         PTCLDY    27  16  63 W9        30.34S WCI  18
LACON*         PTCLDY    24  15  69 NW5       30.33S WCI  18
LINCOLN*       PTCLDY    28  21  76 W3        30.37R
SPRINGFIELD    CLOUDY    27  19  72 W6        30.36R WCI  20
TAYLORVILLE    CLOUDY    27  21  80 NW3       30.36R
$$

ILZ033-039-045-046-055>057-062-063-020000-
EAST-CENTRAL ILLINOIS

CITY           SKY/WX    TMP DP  RH WIND       PRES   REMARKS
CHAMPAIGN      MOCLDY    21  17  84 NW6       30.32R WCI  13
DANVILLE*      PTCLDY    23  19  86 NW6       30.28F WCI  16
RANTOUL*       PTCLDY    25  20  82 NW5       30.31S WCI  19
MATTOON        CLOUDY    26  21  81 NW8       30.32S WCI  18
PARIS*         MOCLDY    26  23  89 NW3       30.32S
$$

ILZ079-100>102-020000-
SOUTHWEST ILLINOIS

CITY           SKY/WX    TMP DP  RH WIND       PRES   REMARKS
ALTON          CLOUDY    30  23  74 NW6       30.36F WCI  24
BELLEVILLE     CLOUDY    31  28  86 NW8       30.35S WCI  24
CAHOKIA*       CLOUDY    32  25  75 N8        30.36S WCI  25
SPARTA*        CLOUDY    31  27  84 NW9       30.37R WCI  23
$$

ILZ064>066-069>071-074>076-080>082-084>086-088>090-092>094-020000-
SOUTH-CENTRAL ILLINOIS

CITY           SKY/WX    TMP DP  RH WIND       PRES   REMARKS
CARBONDALE     CLOUDY    33  28  81 N8        30.35S WCI  26
CAIRO*         CLOUDY    39  32  76 N3        30.33F
EFFINGHAM*     CLOUDY    30  22  74 W7        30.36R WCI  23
MARION         CLOUDY    34  30  86 NW12      30.36R WCI  25
MT. VERNON     CLOUDY    32  25  74 NW5       30.35S WCI  27
CENTRALIA*     MOCLDY    31  26  81 NW7       30.35S WCI  24
SALEM*         CLOUDY    32  28  85 NW8       30.35S WCI  25
METROPOLIS*    CLOUDY    38  32  81 CALM      30.33S
$$

ILZ067-068-072-073-078-083-087-091-020000-
SOUTHEAST ILLINOIS

CITY           SKY/WX    TMP DP  RH WIND       PRES   REMARKS
LAWRENCEVILLE  CLOUDY    33  29  85 W8        30.33F FOG     WCI  26
FLORA*         CLOUDY    31  28  89 NW8       30.35S WCI  24
FAIRFIELD*     CLOUDY    32  29  88 NW5       30.33F WCI  28
HARRISBURG*    CLOUDY    34  32  91 NW6       30.36R WCI  29
ROBINSON*      CLOUDY    32  30  92 W10       30.35R WCI  24
CARMI*         CLOUDY    35  34  96 NW8       30.35S FOG     WCI  28
$$

ABBREVIATIONS USED IN REMARKS
   TC - TEMPERATURE IN CELSIUS
  WCI - WIND CHILL INDEX
   HX - HEAT INDEX
  VSB - VISIBILITY
$$



USA.gov is the U.S. government's official web portal to all federal, state and local government web resources and services.